Time,TemperatureF,DewpointF,PressureIn,WindDirection,WindDirectionDegrees,WindSpeedMPH,WindSpeedGustMPH,Humidity,HourlyPrecipIn,Conditions,Clouds,dailyrainin,SoftwareType,DateUTC
2013-03-07 00:02:00,31.0,28.0,30.19,West,264,0.0,0.0,88,0.00,,,0.00,,2013-03-07 05:02:00,
2013-03-07 00:12:00,31.0,28.0,30.19,West,264,0.0,0.0,88,0.00,,,0.00,,2013-03-07 05:12:00,
2013-03-07 00:22:00,31.0,28.0,30.19,West,264,0.0,0.0,89,0.00,,,0.00,,2013-03-07 05:22:00,
2013-03-07 00:32:00,31.0,28.0,30.19,West,266,0.0,0.0,89,0.00,,,0.00,,2013-03-07 05:32:00,
2013-03-07 00:42:00,31.0,28.0,30.19,West,266,0.0,0.0,89,0.00,,,0.00,,2013-03-07 05:42:00,
2013-03-07 00:52:00,31.0,28.0,30.18,West,266,0.0,0.0,88,0.00,,,0.00,,2013-03-07 05:52:00,
2013-03-07 01:02:00,31.0,28.0,30.18,West,266,0.0,0.0,88,0.00,,,0.00,,2013-03-07 06:02:00,
2013-03-07 01:11:00,31.0,28.0,30.18,West,266,0.0,0.0,88,0.00,,,0.00,,2013-03-07 06:11:00,
2013-03-07 01:21:00,31.0,28.0,30.19,West,266,0.0,0.0,90,0.00,,,0.00,,2013-03-07 06:21:00,
2013-03-07 01:32:00,31.0,28.0,30.19,West,266,0.0,0.0,90,0.00,,,0.00,,2013-03-07 06:32:00,
2013-03-07 01:42:00,31.0,28.0,30.19,West,266,0.0,0.0,90,0.00,,,0.00,,2013-03-07 06:42:00,
2013-03-07 01:52:00,31.0,28.0,30.18,West,264,0.0,0.0,90,0.00,,,0.00,,2013-03-07 06:52:00,
2013-03-07 02:01:00,31.0,29.0,30.18,West,264,0.0,0.0,91,0.00,,,0.00,,2013-03-07 07:01:00,
2013-03-07 02:11:00,31.0,29.0,30.18,West,264,0.0,0.0,91,0.00,,,0.00,,2013-03-07 07:11:00,
2013-03-07 02:22:00,30.0,28.0,30.19,West,264,0.0,0.0,92,0.00,,,0.00,,2013-03-07 07:22:00,
2013-03-07 02:32:00,30.0,28.0,30.19,West,264,0.0,0.0,92,0.00,,,0.00,,2013-03-07 07:32:00,
2013-03-07 02:43:00,30.0,28.0,30.19,West,264,0.0,0.0,92,0.00,,,0.00,,2013-03-07 07:43:00,
2013-03-07 02:52:00,30.0,28.0,30.19,West,264,0.0,0.0,92,0.00,,,0.00,,2013-03-07 07:52:00,
2013-03-07 03:03:00,30.0,28.0,30.19,West,264,0.0,0.0,92,0.00,,,0.00,,2013-03-07 08:03:00,
2013-03-07 03:12:00,30.0,28.0,30.19,West,264,0.0,0.0,92,0.00,,,0.00,,2013-03-07 08:12:00,
2013-03-07 03:23:00,30.0,28.0,30.19,West,264,0.0,0.0,93,0.00,,,0.00,,2013-03-07 08:23:00,
2013-03-07 03:34:00,30.0,28.0,30.19,SW,236,0.0,0.0,93,0.00,,,0.00,,2013-03-07 08:34:00,
2013-03-07 03:44:00,30.0,28.0,30.19,SW,236,0.0,0.0,93,0.00,,,0.00,,2013-03-07 08:44:00,
2013-03-07 03:53:00,30.0,28.0,30.19,SW,236,0.0,0.0,93,0.00,,,0.00,,2013-03-07 08:53:00,
2013-03-07 04:03:00,30.0,28.0,30.19,SW,236,0.0,0.0,93,0.00,,,0.00,,2013-03-07 09:03:00,
2013-03-07 04:13:00,30.0,28.0,30.19,SW,236,0.0,0.0,93,0.00,,,0.00,,2013-03-07 09:13:00,
2013-03-07 04:23:00,30.0,28.0,30.20,SW,236,0.0,0.0,92,0.00,,,0.00,,2013-03-07 09:23:00,
2013-03-07 04:33:00,30.0,28.0,30.20,SW,236,0.0,0.0,91,0.00,,,0.00,,2013-03-07 09:33:00,
2013-03-07 04:43:00,30.0,28.0,30.20,SW,236,0.0,0.0,91,0.00,,,0.00,,2013-03-07 09:43:00,
2013-03-07 04:52:00,31.0,29.0,30.20,SW,236,0.0,0.0,91,0.00,,,0.00,,2013-03-07 09:52:00,
2013-03-07 05:04:00,31.0,29.0,30.21,SW,236,0.0,0.0,91,0.00,,,0.00,,2013-03-07 10:04:00,
2013-03-07 05:13:00,31.0,29.0,30.21,SW,236,0.0,0.0,91,0.00,,,0.00,,2013-03-07 10:13:00,
2013-03-07 05:23:00,31.0,29.0,30.21,SW,236,0.0,0.0,91,0.00,,,0.00,,2013-03-07 10:23:00,
2013-03-07 05:33:00,31.0,29.0,30.21,SW,236,0.0,0.0,91,0.00,,,0.00,,2013-03-07 10:33:00,
2013-03-07 05:43:00,31.0,29.0,30.21,SW,236,0.0,0.0,91,0.00,,,0.00,,2013-03-07 10:43:00,
2013-03-07 05:52:00,31.0,29.0,30.22,SW,236,0.0,0.0,91,0.00,,,0.00,,2013-03-07 10:52:00,
2013-03-07 06:03:00,31.0,29.0,30.22,West,280,0.0,0.0,91,0.00,,,0.00,,2013-03-07 11:03:00,
2013-03-07 06:12:00,31.0,29.0,30.22,West,280,0.0,0.0,91,0.00,,,0.00,,2013-03-07 11:12:00,
2013-03-07 06:23:00,31.0,29.0,30.23,West,281,0.0,0.0,91,0.00,,,0.00,,2013-03-07 11:23:00,
2013-03-07 06:33:00,31.0,29.0,30.23,WNW,285,0.0,0.0,91,0.00,,,0.00,,2013-03-07 11:33:00,
2013-03-07 06:43:00,31.0,29.0,30.23,WNW,285,0.0,0.0,91,0.00,,,0.00,,2013-03-07 11:43:00,
2013-03-07 06:53:00,31.0,29.0,30.24,WNW,285,0.0,0.0,92,0.00,,,0.00,,2013-03-07 11:53:00,
2013-03-07 07:04:00,31.0,29.0,30.24,NW,316,0.0,0.0,92,0.00,,,0.00,,2013-03-07 12:04:00,
2013-03-07 07:12:00,31.0,29.0,30.24,NW,316,0.0,0.0,92,0.00,,,0.00,,2013-03-07 12:12:00,
2013-03-07 07:23:00,30.0,28.0,30.24,WNW,291,0.0,0.0,92,0.00,,,0.00,,2013-03-07 12:23:00,
2013-03-07 07:34:00,30.0,28.0,30.24,WNW,297,0.0,1.0,92,0.00,,,0.00,,2013-03-07 12:34:00,
2013-03-07 07:43:00,30.0,28.0,30.24,WNW,297,0.0,1.0,92,0.00,,,0.00,,2013-03-07 12:43:00,
2013-03-07 07:52:00,30.0,28.0,30.24,WNW,290,0.0,2.0,92,0.00,,,0.00,,2013-03-07 12:52:00,
2013-03-07 08:03:00,30.0,28.0,30.25,WNW,286,0.0,2.0,93,0.00,,,0.00,,2013-03-07 13:03:00,
2013-03-07 08:12:00,30.0,28.0,30.25,WNW,286,0.0,2.0,93,0.00,,,0.00,,2013-03-07 13:12:00,
2013-03-07 08:23:00,31.0,29.0,30.26,WNW,298,1.0,2.0,93,0.00,,,0.00,,2013-03-07 13:23:00,
2013-03-07 08:32:00,31.0,29.0,30.27,WNW,301,1.0,4.0,92,0.00,,,0.00,,2013-03-07 13:32:00,
2013-03-07 08:42:00,31.0,29.0,30.27,WNW,301,1.0,4.0,92,0.00,,,0.00,,2013-03-07 13:42:00,
2013-03-07 08:53:00,31.0,29.0,30.28,WNW,292,1.0,4.0,92,0.00,,,0.00,,2013-03-07 13:53:00,
2013-03-07 09:02:00,31.0,29.0,30.28,WNW,291,2.0,5.0,92,0.00,,,0.00,,2013-03-07 14:02:00,
2013-03-07 09:12:00,31.0,29.0,30.28,WNW,291,2.0,5.0,92,0.00,,,0.00,,2013-03-07 14:12:00,
2013-03-07 09:23:00,32.0,30.0,30.29,WNW,292,1.0,4.0,91,0.00,,,0.00,,2013-03-07 14:23:00,
2013-03-07 09:33:00,32.0,30.0,30.29,NW,308,3.0,6.0,91,0.00,,,0.00,,2013-03-07 14:33:00,
2013-03-07 09:42:00,32.0,30.0,30.29,NW,308,3.0,6.0,91,0.00,,,0.00,,2013-03-07 14:42:00,
2013-03-07 09:53:00,31.0,29.0,30.30,NE,47,1.0,5.0,91,0.00,,,0.00,,2013-03-07 14:53:00,
2013-03-07 10:03:00,32.0,29.0,30.30,NW,319,2.0,6.0,90,0.00,,,0.00,,2013-03-07 15:03:00,
2013-03-07 10:12:00,32.0,29.0,30.30,NW,319,2.0,6.0,90,0.00,,,0.00,,2013-03-07 15:12:00,
2013-03-07 10:23:00,32.0,29.0,30.30,WNW,291,2.0,11.0,88,0.00,,,0.00,,2013-03-07 15:23:00,
2013-03-07 10:33:00,32.0,29.0,30.30,NW,309,3.0,6.0,87,0.00,,,0.00,,2013-03-07 15:33:00,
2013-03-07 10:42:00,32.0,29.0,30.30,NW,309,3.0,6.0,87,0.00,,,0.00,,2013-03-07 15:42:00,
2013-03-07 10:52:00,32.0,28.0,30.30,NW,316,2.0,6.0,86,0.00,,,0.00,,2013-03-07 15:52:00,
2013-03-07 11:02:00,32.0,28.0,30.31,WNW,295,2.0,8.0,86,0.00,,,0.00,,2013-03-07 16:02:00,
2013-03-07 11:13:00,32.0,28.0,30.31,WNW,295,2.0,8.0,86,0.00,,,0.00,,2013-03-07 16:13:00,
2013-03-07 11:24:00,33.0,28.0,30.31,NW,318,2.0,6.0,83,0.00,,,0.00,,2013-03-07 16:24:00,
2013-03-07 11:33:00,33.0,28.0,30.31,ENE,63,2.0,4.0,82,0.00,,,0.00,,2013-03-07 16:33:00,
2013-03-07 11:43:00,33.0,28.0,30.31,ENE,63,2.0,4.0,82,0.00,,,0.00,,2013-03-07 16:43:00,
2013-03-07 11:52:00,33.0,28.0,30.31,NNW,328,2.0,6.0,82,0.00,,,0.00,,2013-03-07 16:52:00,
2013-03-07 12:03:00,33.0,28.0,30.32,NNW,329,2.0,6.0,81,0.00,,,0.00,,2013-03-07 17:03:00,
2013-03-07 12:12:00,33.0,28.0,30.32,NNW,329,2.0,6.0,81,0.00,,,0.00,,2013-03-07 17:12:00,
2013-03-07 12:23:00,33.0,28.0,30.32,WNW,300,3.0,7.0,80,0.00,,,0.00,,2013-03-07 17:23:00,
2013-03-07 12:33:00,33.0,28.0,30.32,NW,311,1.0,5.0,81,0.00,,,0.00,,2013-03-07 17:33:00,
2013-03-07 12:43:00,33.0,28.0,30.32,NW,311,1.0,5.0,81,0.00,,,0.00,,2013-03-07 17:43:00,
2013-03-07 12:53:00,32.0,27.0,30.32,WNW,297,2.0,7.0,80,0.00,,,0.00,,2013-03-07 17:53:00,
2013-03-07 13:04:00,33.0,28.0,30.32,WNW,285,1.0,6.0,80,0.00,,,0.00,,2013-03-07 18:04:00,
2013-03-07 13:13:00,33.0,28.0,30.32,WNW,285,1.0,6.0,80,0.00,,,0.00,,2013-03-07 18:13:00,
2013-03-07 13:22:00,33.0,27.0,30.32,NNE,23,4.0,6.0,78,0.00,,,0.00,,2013-03-07 18:22:00,
2013-03-07 13:32:00,33.0,27.0,30.31,NW,315,1.0,7.0,79,0.00,,,0.00,,2013-03-07 18:32:00,
2013-03-07 13:42:00,33.0,27.0,30.31,NW,315,1.0,7.0,79,0.00,,,0.00,,2013-03-07 18:42:00,
2013-03-07 13:52:00,33.0,27.0,30.31,NNW,330,0.0,5.0,78,0.00,,,0.00,,2013-03-07 18:52:00,
2013-03-07 14:03:00,34.0,27.0,30.31,ENE,61,1.0,4.0,74,0.00,,,0.00,,2013-03-07 19:03:00,
2013-03-07 14:12:00,34.0,27.0,30.31,ENE,61,1.0,4.0,74,0.00,,,0.00,,2013-03-07 19:12:00,
2013-03-07 14:23:00,34.0,26.0,30.30,NNW,328,1.0,5.0,71,0.00,,,0.00,,2013-03-07 19:23:00,
2013-03-07 14:35:00,34.0,25.0,30.30,West,266,1.0,5.0,68,0.00,,,0.00,,2013-03-07 19:35:00,
2013-03-07 14:43:00,34.0,25.0,30.30,West,266,1.0,5.0,68,0.00,,,0.00,,2013-03-07 19:43:00,
2013-03-07 14:53:00,34.0,25.0,30.31,NW,316,1.0,6.0,68,0.00,,,0.00,,2013-03-07 19:53:00,
2013-03-07 15:02:00,34.0,25.0,30.32,NW,318,3.0,7.0,70,0.00,,,0.00,,2013-03-07 20:02:00,
2013-03-07 15:13:00,34.0,25.0,30.32,NW,318,3.0,7.0,70,0.00,,,0.00,,2013-03-07 20:13:00,
2013-03-07 15:22:00,33.0,25.0,30.32,North,354,2.0,8.0,71,0.00,,,0.00,,2013-03-07 20:22:00,
2013-03-07 15:33:00,33.0,24.0,30.32,North,6,2.0,6.0,70,0.00,,,0.00,,2013-03-07 20:33:00,
2013-03-07 15:43:00,33.0,24.0,30.32,North,6,2.0,6.0,70,0.00,,,0.00,,2013-03-07 20:43:00,
2013-03-07 15:54:00,34.0,25.0,30.32,NE,54,0.0,2.0,69,0.00,,,0.00,,2013-03-07 20:54:00,
2013-03-07 16:03:00,34.0,25.0,30.32,NNW,333,1.0,5.0,69,0.00,,,0.00,,2013-03-07 21:03:00,
2013-03-07 16:12:00,34.0,25.0,30.32,NNW,333,1.0,5.0,69,0.00,,,0.00,,2013-03-07 21:12:00,
2013-03-07 16:23:00,33.0,24.0,30.33,NNE,30,1.0,5.0,70,0.00,,,0.00,,2013-03-07 21:23:00,
2013-03-07 16:33:00,33.0,24.0,30.33,North,356,2.0,8.0,70,0.00,,,0.00,,2013-03-07 21:33:00,
2013-03-07 16:43:00,33.0,24.0,30.33,North,356,2.0,8.0,70,0.00,,,0.00,,2013-03-07 21:43:00,
2013-03-07 16:53:00,33.0,24.0,30.33,North,354,1.0,4.0,70,0.00,,,0.00,,2013-03-07 21:53:00,
2013-03-07 17:02:00,33.0,24.0,30.33,NW,307,1.0,3.0,68,0.00,,,0.00,,2013-03-07 22:02:00,
2013-03-07 17:12:00,33.0,24.0,30.33,NW,307,1.0,3.0,68,0.00,,,0.00,,2013-03-07 22:12:00,
2013-03-07 17:23:00,33.0,24.0,30.33,NW,319,1.0,5.0,68,0.00,,,0.00,,2013-03-07 22:23:00,
2013-03-07 17:33:00,32.0,22.0,30.33,NW,304,1.0,4.0,67,0.00,,,0.00,,2013-03-07 22:33:00,
2013-03-07 17:43:00,32.0,22.0,30.33,NW,304,1.0,4.0,67,0.00,,,0.00,,2013-03-07 22:43:00,
2013-03-07 17:54:00,32.0,22.0,30.33,ENE,67,0.0,6.0,66,0.00,,,0.00,,2013-03-07 22:54:00,
2013-03-07 18:03:00,32.0,22.0,30.34,East,80,1.0,3.0,66,0.00,,,0.00,,2013-03-07 23:03:00,
2013-03-07 18:13:00,32.0,22.0,30.34,East,80,1.0,3.0,66,0.00,,,0.00,,2013-03-07 23:13:00,
2013-03-07 18:22:00,31.0,21.0,30.35,WNW,297,0.0,1.0,67,0.00,,,0.00,,2013-03-07 23:22:00,
2013-03-07 18:34:00,32.0,23.0,30.35,NNW,329,0.0,1.0,68,0.00,,,0.00,,2013-03-07 23:34:00,
2013-03-07 18:43:00,32.0,23.0,30.35,NNW,329,0.0,1.0,68,0.00,,,0.00,,2013-03-07 23:43:00,
2013-03-07 18:54:00,31.0,21.0,30.36,NNW,338,0.0,3.0,66,0.00,,,0.00,,2013-03-07 23:54:00,
2013-03-07 19:04:00,31.0,22.0,30.36,North,6,0.0,2.0,68,0.00,,,0.00,,2013-03-08 00:04:00,
2013-03-07 19:13:00,31.0,22.0,30.36,North,6,0.0,2.0,68,0.00,,,0.00,,2013-03-08 00:13:00,
2013-03-07 19:23:00,31.0,21.0,30.36,NNW,343,0.0,3.0,67,0.00,,,0.00,,2013-03-08 00:23:00,
2013-03-07 19:34:00,30.0,21.0,30.36,NNW,343,0.0,0.0,69,0.00,,,0.00,,2013-03-08 00:34:00,
2013-03-07 19:44:00,30.0,21.0,30.36,NNW,343,0.0,0.0,69,0.00,,,0.00,,2013-03-08 00:44:00,
2013-03-07 19:54:00,30.0,22.0,30.37,NNW,345,0.0,1.0,71,0.00,,,0.00,,2013-03-08 00:54:00,
2013-03-07 20:02:00,29.0,20.0,30.37,NNW,345,0.0,0.0,70,0.00,,,0.00,,2013-03-08 01:02:00,
2013-03-07 20:11:00,29.0,20.0,30.37,NNW,345,0.0,0.0,70,0.00,,,0.00,,2013-03-08 01:11:00,
2013-03-07 20:22:00,29.0,22.0,30.37,NE,54,0.0,1.0,74,0.00,,,0.00,,2013-03-08 01:22:00,
2013-03-07 20:33:00,29.0,21.0,30.37,NE,52,0.0,1.0,73,0.00,,,0.00,,2013-03-08 01:33:00,
2013-03-07 20:42:00,29.0,21.0,30.37,NE,52,0.0,1.0,73,0.00,,,0.00,,2013-03-08 01:42:00,
2013-03-07 20:52:00,29.0,21.0,30.37,NE,53,0.0,0.0,72,0.00,,,0.00,,2013-03-08 01:52:00,
2013-03-07 21:01:00,29.0,20.0,30.37,NE,53,0.0,0.0,70,0.00,,,0.00,,2013-03-08 02:01:00,
2013-03-07 21:12:00,29.0,21.0,30.38,NE,52,0.0,0.0,71,0.00,,,0.00,,2013-03-08 02:12:00,
2013-03-07 21:22:00,29.0,21.0,30.38,NE,52,0.0,0.0,71,0.00,,,0.00,,2013-03-08 02:22:00,
2013-03-07 21:32:00,29.0,21.0,30.37,NE,53,0.0,0.0,71,0.00,,,0.00,,2013-03-08 02:32:00,
2013-03-07 21:42:00,29.0,21.0,30.37,NE,53,0.0,0.0,71,0.00,,,0.00,,2013-03-08 02:42:00,
2013-03-07 21:53:00,29.0,21.0,30.38,NE,53,0.0,0.0,73,0.00,,,0.00,,2013-03-08 02:53:00,
2013-03-07 22:02:00,29.0,21.0,30.38,NE,53,0.0,0.0,71,0.00,,,0.00,,2013-03-08 03:02:00,
2013-03-07 22:12:00,29.0,21.0,30.38,NE,53,0.0,0.0,71,0.00,,,0.00,,2013-03-08 03:12:00,
2013-03-07 22:22:00,28.0,21.0,30.38,NE,53,0.0,0.0,75,0.00,,,0.00,,2013-03-08 03:22:00,
2013-03-07 22:32:00,27.0,20.0,30.38,NE,52,0.0,0.0,76,0.00,,,0.00,,2013-03-08 03:32:00,
2013-03-07 22:43:00,27.0,20.0,30.38,NE,52,0.0,0.0,76,0.00,,,0.00,,2013-03-08 03:43:00,
2013-03-07 22:53:00,26.0,20.0,30.38,NE,53,0.0,0.0,78,0.00,,,0.00,,2013-03-08 03:53:00,
2013-03-07 23:02:00,26.0,20.0,30.38,NE,53,0.0,0.0,78,0.00,,,0.00,,2013-03-08 04:02:00,
2013-03-07 23:11:00,26.0,20.0,30.38,NE,53,0.0,0.0,78,0.00,,,0.00,,2013-03-08 04:11:00,
2013-03-07 23:22:00,25.0,20.0,30.38,NE,54,0.0,0.0,81,0.00,,,0.00,,2013-03-08 04:22:00,
2013-03-07 23:32:00,25.0,21.0,30.38,NE,54,0.0,0.0,84,0.00,,,0.00,,2013-03-08 04:32:00,
2013-03-07 23:42:00,25.0,21.0,30.38,NE,54,0.0,0.0,84,0.00,,,0.00,,2013-03-08 04:42:00,
2013-03-07 23:52:00,24.0,20.0,30.37,NE,54,0.0,0.0,84,0.00,,,0.00,,2013-03-08 04:52:00,